Вернуться в каталог

COSMOS 2418

GLONASS

АктивенНавигацияMEO
NORAD 28916·PAYLOAD·🇷🇺 Russia

Запущен Dec 25, 2005 с Baikonur Cosmodrome

Loading…

Ближайшие Пролёты (ближайшие 24 часа)

TLE

СвежийSource: Space-Track

Эпоха: Sep 14, 2026, 19:06 UTC

1 28916U 05050B   26257.79650770 -.00000056  00000-0  00000-0 0  9991
2 28916  65.5366 313.2639 0013284 274.5830  83.4566  2.13106247161166

Отслеживайте COSMOS 2418 в реальном времени с AllMySat

Download on the App Store